Retour au catalogue

SL-8 DEB

ActifLEO
NORAD 21750·DEBRIS·🇷🇺 Russia

Lancé Feb 12, 1991 depuis Plesetsk Cosmodrome

Loading…

Prochains Passages (prochaines 24 heures)

TLE

FraisSource: Space-Track

Époque: Sep 14, 2026, 10:22 UTC

1 21750U 91009CQ  26257.43226558  .00000154  00000-0  14065-2 0  9999
2 21750  74.0717 241.4046 0135878 243.1455 274.3713 12.29715512588968

Suivez SL-8 DEB en temps réel avec AllMySat

Download on the App Store